EW9058 Laiya PH current weather conditions

sailwx.info

Air temperature 24.4° C
Dewpoint 23.6° C

Last reported at 2018-Oct-17 18:00 UTC.
Time now 2018-Oct-17 18:39 UTC

Location: N 13°40' E 121°24'.
View on Google Maps.

See reports from other nearby stations

  
Tides and Currents Weather Stations Pressure Air Temp Water Temp Dewpoint Dewpoint Depression Visibility Wind Speed Wind Dir Waves Ship Positions
date/time (UTC)wind fromknots sea level pressurealtimeterstation pressurevisibilityair tempwater tempwave heightnotes
2018-Oct-17 18:00 24.4
2018-Oct-17 17:30 082 25.0
2018-Oct-17 17:00 033 25.0
2018-Oct-17 16:30 032 25.6
2018-Oct-17 16:00 323 0 gusting 4 25.6
2018-Oct-17 15:30 324 0 gusting 5 25.6
2018-Oct-17 15:00 332 0 gusting 5 25.6
2018-Oct-17 14:30 041 25.6
2018-Oct-17 02:30 071 3 gusting 9 31.1
2018-Oct-17 02:00 082 3 gusting 9 30.6
2018-Oct-17 01:30 067 3 gusting 9 30.0
2018-Oct-17 01:00 057 3 gusting 9 29.4
2018-Oct-17 00:30 028 3 gusting 9 29.4
2018-Oct-17 00:00 347 1 gusting 6 28.9
2018-Oct-16 23:30 326 0 gusting 3 27.2
2018-Oct-16 23:00 330 25.6
2018-Oct-16 22:30 008 23.9
2018-Oct-16 22:00 059 23.3
2018-Oct-16 21:30 066 23.3
2018-Oct-16 21:00 057 23.9
2018-Oct-16 20:30 064 23.9
2018-Oct-16 20:00 059 23.9
2018-Oct-16 19:30 24.4
2018-Oct-16 19:00 041 24.4
2018-Oct-16 18:30 057 25.0
2018-Oct-16 18:00 345 25.0
2018-Oct-16 17:30 335 25.0
2018-Oct-16 17:00 021 25.0
2018-Oct-16 16:30 337 25.6
2018-Oct-16 16:00 336 25.6
2018-Oct-16 15:30 340 25.6
2018-Oct-16 15:00 335 26.1
2018-Oct-16 14:30 329 26.1
2018-Oct-16 14:00 345 26.7
2018-Oct-16 13:30 330 26.7
2018-Oct-16 13:00 026 26.7
2018-Oct-16 12:30 325 26.7
2018-Oct-16 12:00 327 27.2
2018-Oct-16 11:30 022 27.8
2018-Oct-16 11:00 055 27.8
2018-Oct-16 10:30 066 28.3
2018-Oct-16 10:00 071 28.9
2018-Oct-16 09:30 075 1 gusting 7 29.4
2018-Oct-16 09:00 092 1 gusting 7 30.6
2018-Oct-16 08:30 153 1 gusting 6 30.6
2018-Oct-16 08:00 174 2 gusting 7 31.1
2018-Oct-16 07:30 160 3 gusting 7 30.6
2018-Oct-16 07:00 165 3 gusting 6 30.6
2018-Oct-16 06:30 163 3 gusting 6 30.6
2018-Oct-16 06:00 171 2 gusting 6 30.6
2018-Oct-16 05:30 178 2 gusting 6 30.6
2018-Oct-16 05:00 186 2 gusting 6 30.6
2018-Oct-16 04:30 189 2 gusting 8 30.0
2018-Oct-16 04:00 166 4 gusting 8 30.0
2018-Oct-16 03:30 168 3 gusting 8 30.0
2018-Oct-16 03:00 154 3 gusting 10 30.0
2018-Oct-16 02:30 128 2 gusting 10 30.0
2018-Oct-16 02:00 145 0 gusting 7 30.6
2018-Oct-16 01:30 082 1 gusting 7 29.4
2018-Oct-16 01:00 037 0 gusting 6 28.3
2018-Oct-16 00:30 055 1 gusting 6 28.3
2018-Oct-16 00:00 037 0 gusting 4 27.8
2018-Oct-15 23:30 26.7
2018-Oct-15 23:00 24.4
2018-Oct-15 22:30 23.3
2018-Oct-15 22:00 23.3
2018-Oct-15 21:30 22.8
2018-Oct-15 21:00 22.8
2018-Oct-15 20:30 22.2
2018-Oct-15 20:00 22.8
2018-Oct-15 19:30 22.8
2018-Oct-15 19:00 063 22.8
2018-Oct-15 18:30 23.3
2018-Oct-15 18:00 22.8